When you browse on this site, cookies collect data to enhance your experience and personalize the content and advertising you see.
Visit our Privacy Policy to learn more. By continuing to use the site, you agree to this use of cookies and data.
  • In Latvia
  • List of Countries
  • For 7 days
  • Water Temperature
  • Weather Map
  • Weather Widgets
  • user-avatar
    Login

    Hourly Weather Preobrazhenka

    Today, 28 May, Thursday

    Time Temperature Precipitation Wind Pressure Humidity
    00:00 +7°C° 0 mm 8 mps 717 mmHg 58%
    01:00 +8°C° 0 mm 7 mps 717 mmHg 58%
    02:00 +7°C° 0 mm 6 mps 717 mmHg 59%
    03:00 +7°C° 0 mm 5 mps 717 mmHg 59%
    04:00 +7°C° 0 mm 5 mps 717 mmHg 59%
    05:00 +7°C° 0 mm 5 mps 717 mmHg 59%
    06:00 +7°C° 0 mm 5 mps 717 mmHg 58%
    07:00 +10°C° 0 mm 5 mps 717 mmHg 51%
    08:00 +13°C° 0 mm 4 mps 717 mmHg 43%
    09:00 +15°C° 0 mm 4 mps 718 mmHg 36%
    10:00 +18°C° 0 mm 4 mps 717 mmHg 33%
    11:00 +19°C° 0 mm 4 mps 717 mmHg 31%
    12:00 +21°C° 0 mm 4 mps 717 mmHg 29%
    13:00 +21°C° 0 mm 4 mps 717 mmHg 29%
    14:00 +22°C° 0 mm 5 mps 716 mmHg 29%
    15:00 +22°C° 0 mm 5 mps 716 mmHg 29%
    16:00 +21°C° 0 mm 6 mps 716 mmHg 34%
    17:00 +20°C° 0 mm 6 mps 716 mmHg 38%
    18:00 +20°C° 0 mm 7 mps 716 mmHg 43%
    19:00 +16°C° 0 mm 7 mps 716 mmHg 49%
    20:00 +14°C° 0 mm 6 mps 716 mmHg 55%
    21:00 +11°C° 0 mm 6 mps 716 mmHg 62%
    22:00 +10°C° 0 mm 5 mps 716 mmHg 62%
    23:00 +9°C° 0 mm 5 mps 715 mmHg 63%

    Tomorrow, 29 May, Friday

    Time Temperature Precipitation Wind Pressure Humidity
    00:00 +8°C° 0 mm 4 mps 715 mmHg 64%
    01:00 +8°C° 0 mm 4 mps 715 mmHg 63%
    02:00 +7°C° 0 mm 4 mps 715 mmHg 62%
    03:00 +7°C° 0 mm 4 mps 714 mmHg 61%
    04:00 +9°C° 0 mm 3 mps 714 mmHg 60%
    05:00 +9°C° 0 mm 3 mps 714 mmHg 59%
    06:00 +10°C° 0 mm 3 mps 715 mmHg 58%
    07:00 +12°C° 0 mm 3 mps 715 mmHg 51%
    08:00 +16°C° 0 mm 3 mps 715 mmHg 45%
    09:00 +18°C° 0 mm 3 mps 715 mmHg 38%
    10:00 +19°C° 0 mm 3 mps 715 mmHg 36%
    11:00 +21°C° 0 mm 2 mps 714 mmHg 34%
    12:00 +23°C° 0 mm 2 mps 714 mmHg 31%
    13:00 +24°C° 0 mm 3 mps 714 mmHg 31%
    14:00 +25°C° 0 mm 4 mps 714 mmHg 30%
    15:00 +25°C° 0 mm 4 mps 714 mmHg 30%
    16:00 +23°C° 0 mm 5 mps 714 mmHg 33%
    17:00 +23°C° 0 mm 5 mps 713 mmHg 36%
    18:00 +22°C° 0 mm 6 mps 713 mmHg 38%
    19:00 +20°C° 0 mm 5 mps 713 mmHg 46%
    20:00 +16°C° 0 mm 5 mps 713 mmHg 53%
    21:00 +14°C° 0 mm 4 mps 713 mmHg 60%
    22:00 +13°C° 0 mm 3 mps 713 mmHg 59%
    23:00 +13°C° 0 mm 3 mps 713 mmHg 58%

    Day after tomorrow, 30 May, Saturday

    Time Temperature Precipitation Wind Pressure Humidity
    00:00 +12°C° 0 mm 3 mps 712 mmHg 58%
    01:00 +12°C° 0 mm 3 mps 712 mmHg 55%
    02:00 +13°C° 0 mm 2 mps 712 mmHg 52%
    03:00 +13°C° 0 mm 2 mps 712 mmHg 49%
    04:00 +13°C° 0 mm 2 mps 712 mmHg 49%
    05:00 +14°C° 0 mm 2 mps 713 mmHg 50%
    06:00 +15°C° 0 mm 2 mps 713 mmHg 50%
    07:00 +18°C° 0 mm 1 mps 713 mmHg 45%
    08:00 +20°C° 0 mm 1 mps 713 mmHg 40%
    09:00 +22°C° 0 mm 1 mps 713 mmHg 35%
    10:00 +24°C° 0 mm 2 mps 713 mmHg 35%
    11:00 +25°C° 0 mm 2 mps 714 mmHg 34%
    12:00 +27°C° 0 mm 3 mps 714 mmHg 33%
    13:00 +27°C° 0 mm 4 mps 714 mmHg 33%
    14:00 +27°C° 0 mm 5 mps 714 mmHg 33%
    15:00 +28°C° 0 mm 6 mps 713 mmHg 32%
    16:00 +27°C° 0 mm 6 mps 714 mmHg 34%
    17:00 +27°C° 0 mm 5 mps 714 mmHg 36%
    18:00 +27°C° 0 mm 5 mps 714 mmHg 37%
    19:00 +23°C° 0 mm 5 mps 714 mmHg 43%
    20:00 +21°C° 0 mm 4 mps 714 mmHg 49%
    21:00 +18°C° 0 mm 4 mps 714 mmHg 55%
    22:00 +17°C° 0 mm 4 mps 714 mmHg 55%
    23:00 +16°C° 0 mm 3 mps 714 mmHg 55%

    31 May, Sunday

    Time Temperature Precipitation Wind Pressure Humidity
    00:00 +14°C° 0 mm 3 mps 714 mmHg 55%
    01:00 +14°C° 0 mm 2 mps 714 mmHg 58%
    02:00 +13°C° 0 mm 2 mps 714 mmHg 60%
    03:00 +13°C° 0 mm 2 mps 714 mmHg 62%
    04:00 +13°C° 0 mm 2 mps 714 mmHg 61%
    05:00 +14°C° 0 mm 2 mps 714 mmHg 60%
    06:00 +15°C° 0 mm 2 mps 714 mmHg 59%
    07:00 +17°C° 0 mm 2 mps 714 mmHg 52%
    08:00 +20°C° 0 mm 3 mps 715 mmHg 44%
    09:00 +22°C° 0 mm 3 mps 715 mmHg 36%
    10:00 +24°C° 0 mm 3 mps 715 mmHg 34%
    11:00 +25°C° 0 mm 3 mps 715 mmHg 32%
    12:00 +26°C° 0 mm 3 mps 715 mmHg 29%
    13:00 +27°C° 0 mm 4 mps 714 mmHg 29%
    14:00 +27°C° 0 mm 4 mps 714 mmHg 28%
    15:00 +28°C° 0 mm 4 mps 714 mmHg 28%
    16:00 +28°C° 0 mm 4 mps 714 mmHg 29%
    17:00 +27°C° 0 mm 3 mps 714 mmHg 30%
    18:00 +27°C° 0 mm 3 mps 713 mmHg 31%
    19:00 +25°C° 0 mm 3 mps 713 mmHg 37%
    20:00 +21°C° 0 mm 3 mps 713 mmHg 44%
    21:00 +19°C° 0 mm 3 mps 712 mmHg 50%
    22:00 +18°C° 0 mm 3 mps 712 mmHg 54%
    23:00 +17°C° 0 mm 2 mps 712 mmHg 57%

    1 June, Monday

    Time Temperature Precipitation Wind Pressure Humidity
    00:00 +16°C° 0 mm 1 mps 712 mmHg 61%
    01:00 +16°C° 0 mm 1 mps 712 mmHg 60%
    02:00 +16°C° 0 mm 1 mps 711 mmHg 60%
    03:00 +16°C° 0 mm 1 mps 711 mmHg 59%
    04:00 +16°C° 0 mm 1 mps 711 mmHg 59%
    05:00 +18°C° 0 mm 1 mps 711 mmHg 59%
    06:00 +19°C° 0 mm 1 mps 711 mmHg 59%
    07:00 +20°C° 0 mm 1 mps 711 mmHg 53%
    08:00 +22°C° 0 mm 1 mps 711 mmHg 47%
    09:00 +24°C° 0 mm 1 mps 711 mmHg 40%
    10:00 +27°C° 0 mm 2 mps 711 mmHg 36%
    11:00 +29°C° 0 mm 3 mps 712 mmHg 32%
    12:00 +33°C° 0 mm 4 mps 712 mmHg 28%
    13:00 +33°C° 0 mm 5 mps 712 mmHg 28%
    14:00 +34°C° 0 mm 5 mps 712 mmHg 27%
    15:00 +34°C° 0 mm 5 mps 712 mmHg 27%
    16:00 +34°C° 0 mm 4 mps 711 mmHg 28%
    17:00 +33°C° 0 mm 3 mps 711 mmHg 30%
    18:00 +32°C° 0 mm 2 mps 711 mmHg 32%
    19:00 +29°C° 0 mm 4 mps 711 mmHg 39%
    20:00 +27°C° 0 mm 5 mps 710 mmHg 46%
    21:00 +23°C° 0 mm 7 mps 710 mmHg 52%
    22:00 +22°C° 0 mm 5 mps 710 mmHg 55%
    23:00 +21°C° 0 mm 3 mps 710 mmHg 59%

    2 June, Tuesday

    Time Temperature Precipitation Wind Pressure Humidity
    00:00 +20°C° 0 mm 2 mps 710 mmHg 62%
    01:00 +20°C° 0 mm 2 mps 710 mmHg 61%
    02:00 +20°C° 0 mm 2 mps 709 mmHg 61%
    03:00 +20°C° 0 mm 2 mps 709 mmHg 61%
    04:00 +21°C° 0 mm 2 mps 709 mmHg 61%
    05:00 +22°C° 0 mm 1 mps 709 mmHg 62%
    06:00 +23°C° 0 mm 1 mps 709 mmHg 62%
    07:00 +24°C° 0 mm 2 mps 709 mmHg 56%
    08:00 +26°C° 0 mm 2 mps 709 mmHg 49%
    09:00 +28°C° 0 mm 2 mps 709 mmHg 43%
    10:00 +30°C° 0 mm 2 mps 709 mmHg 36%
    11:00 +33°C° 0 mm 3 mps 709 mmHg 30%
    12:00 +34°C° 0 mm 3 mps 709 mmHg 24%
    13:00 +35°C° 0 mm 4 mps 709 mmHg 22%
    14:00 +35°C° 0 mm 6 mps 708 mmHg 20%
    15:00 +36°C° 0 mm 7 mps 708 mmHg 19%
    16:00 +34°C° 0 mm 8 mps 708 mmHg 26%
    17:00 +31°C° 0 mm 8 mps 708 mmHg 33%
    18:00 +28°C° 0 mm 9 mps 708 mmHg 40%
    19:00 +26°C° 0 mm 7 mps 708 mmHg 45%
    20:00 +23°C° 0 mm 5 mps 708 mmHg 49%
    21:00 +21°C° 0 mm 3 mps 709 mmHg 54%
    22:00 +20°C° 0.1 mm 3 mps 709 mmHg 59%
    23:00 +19°C° 0.1 mm 3 mps 709 mmHg 64%
    Show more